This demonstration page uses our WeatherBlox Daily Observations layout. Learn more.

Left ArrowRight Arrow

39.08367, -84.50855

Hourly Observations for August 30, 2019

Temp ( °F °C ) Dew Point ( °F °C ) Humidity (%) Winds ( mph kmh ) Pressure ( in mb ) Visibility ( mi km ) Precip ( " mm )
12:53 am 00:53 Clear 66 18.9 61 16.1 84 84 SSW 6 9 30.04 1017 10 16 N/A
1:53 am 01:53 Clear 66 18.9 61 16.1 84 84 SW 6 9 30.04 1017 10 16 N/A
2:53 am 02:53 Mostly Cloudy 66 18.9 63 17.2 90 90 N N/A 30.04 1017 10 16 N/A
3:53 am 03:53 Mostly Cloudy 67 19.4 62 16.7 84 84 SSW 5 7 30.03 1017 10 16 N/A
4:53 am 04:53 Partly Cloudy 66 18.9 62 16.7 87 87 N N/A 30.03 1017 10 16 N/A
5:53 am 05:53 Mostly Cloudy 66 18.9 62 16.7 87 87 N N/A 30.03 1017 10 16 N/A
6:53 am 06:53 Partly Cloudy 66 18.9 61 16.1 84 84 SSW 3 6 30.05 1018 10 16 N/A
7:53 am 07:53 Sunny 68 20 62 16.7 81 81 WSW 3 6 30.06 1018 10 16 N/A
8:53 am 08:53 Sunny 71 21.7 64 17.8 79 79 SSW 5 7 30.07 1018 10 16 N/A
9:53 am 09:53 Partly Cloudy 75 23.9 63 17.2 66 66 SW 9 15 30.08 1019 10 16 N/A
10:53 am 10:53 Partly Cloudy 78 25.6 64 17.8 62 62 WSW 5 7 30.08 1019 10 16 N/A
11:53 am 11:53 Sunny 81 27.2 66 18.9 61 61 SSW 5 7 30.08 1019 10 16 N/A
12:53 pm 12:53 Sunny 83 28.3 67 19.4 59 59 N N/A 30.08 1019 10 16 N/A
1:53 pm 13:53 Partly Cloudy 85 29.4 69 20.6 59 59 S 5 7 30.06 1018 10 16 N/A
2:53 pm 14:53 Mostly Sunny 85 29.4 70 21.1 61 61 SW 6 9 30.05 1018 10 16 N/A
3:53 pm 15:53 Partly Cloudy 85 29.4 70 21.1 61 61 WSW 7 11 30.04 1017 10 16 N/A
4:34 pm 16:34 Mostly Cloudy with Thunderstorms 85 29.4 71 21.7 63 63 SW 7 11 30.00 1016 10 16 N/A
4:53 pm 16:53 Mostly Cloudy with Thunderstorms 81 27.2 67 19.4 62 62 NNW 32 52 30.07 1018 8 13 N/A
4:56 pm 16:56 Windy with Storms Likely 73 22.8 65 18.3 76 76 NNW 24 39 30.06 1018 2 2 0.07 1.78
5:02 pm 17:02 Cloudy with Strong Thunderstorms 68 20 67 19.4 96 96 NNE 17 28 30.06 1018 0 0 0.41 10.41
5:06 pm 17:06 Cloudy with Strong Thunderstorms 69 20.6 67 19.4 93 93 NNE 9 15 30.06 1018 0 0 0.42 10.67
5:09 pm 17:09 Cloudy with Strong Thunderstorms 69 20.6 68 20 96 96 VRB 7 11 30.06 1018 2 3 0.44 11.18
5:34 pm 17:34 Cloudy with Rain 70 21.1 68 20 93 93 E 3 6 30.07 1018 3 5 0.73 18.54
5:53 pm 17:53 Cloudy with Light Rain 70 21.1 69 20.6 97 97 NE 5 7 30.06 1018 7 11 0.86 21.84
6:00 pm 18:00 Cloudy with Light Rain 70 21.1 69 20.6 97 97 N N/A 30.07 1018 7 11 0.00 0.00
6:53 pm 18:53 Sunny with Light Rain 71 21.7 69 20.6 94 94 E 3 6 30.07 1018 10 16 0.01 0.25
7:53 pm 19:53 Partly Cloudy 71 21.7 70 21.1 96 96 N N/A 30.08 1019 10 16 0.00 0.00
8:53 pm 20:53 Clear 70 21.1 69 20.6 97 97 NE 3 6 30.11 1020 8 13 N/A
9:53 pm 21:53 Clear 70 21.1 69 20.6 97 97 N N/A 30.13 1020 10 16 N/A
10:53 pm 22:53 Clear 69 20.6 68 20 96 96 NNE 3 6 30.14 1021 10 16 N/A
11:53 pm 23:53 Clear 68 20 67 19.4 96 96 NE 6 9 30.15 1021 8 13 N/A

Powered by AerisWeather